EW1458 Weather Reports


time (UTC)temp
F
wind
direction
speed
knots
gust
knots
rain 1hr
in
rain 24hr
in
rain mn
in
humidity
%
barometer
mb
20260504231551 50 235 8.7 10.4 0.00 0.65 0.02 70 1005.1
20260504231052 50 236 6.1 11.3 0.00 0.66 0.02 70 1005.2
20260504230604 50 249 7.8 11.3 0.00 0.66 0.02 70 1005.1
20260504230058 50 249 7.8 11.3 0.00 0.67 0.02 69 1005.0
20260504225550 50 262 5.2 13.9 0.00 0.69 0.02 69 1004.8
20260504225050 50 232 5.2 13.9 0.00 0.71 0.02 69 1004.8
20260504224547 50 248 3.5 13.0 0.00 0.72 0.02 69 1004.6
20260504224048 50 250 7.0 9.6 0.00 0.74 0.02 70 1004.9
20260504223547 50 226 4.3 9.6 0.00 0.76 0.02 70 1004.5
20260504223046 50 238 7.0 9.6 0.00 0.78 0.02 69 1004.6
20260504222547 50 248 2.6 12.2 0.00 0.80 0.02 70 1004.4
20260504222045 50 236 7.8 12.2 0.00 0.83 0.02 69 1004.5
20260504221539 50 256 3.5 9.6 0.00 0.84 0.02 69 1004.4
20260504221051 50 237 3.5 13.9 0.00 0.85 0.02 68 1004.5
20260504220538 50 262 6.1 13.9 0.00 0.86 0.02 68 1004.4
20260504220037 50 244 7.0 10.4 0.00 0.86 0.02 68 1004.8
20260504215537 50 264 5.2 13.0 0.00 0.89 0.02 69 1004.6
20260504215038 50 250 7.8 13.0 0.00 0.90 0.02 69 1004.7
20260504214538 50 253 7.8 13.0 0.00 0.91 0.02 69 1004.8
20260504214037 50 239 5.2 13.0 0.00 0.93 0.02 68 1004.8
20260504213036 50 236 9.6 13.0 0.00 0.96 0.02 69 1004.7
20260504212550 50 286 4.3 13.0 0.00 0.98 0.02 69 1004.8
20260504212041 50 229 8.7 12.2 0.00 1.00 0.02 68 1004.7
20260504211532 50 226 8.7 16.5 0.00 1.01 0.02 68 1004.8
20260504211032 50 227 8.7 16.5 0.00 1.01 0.02 69 1004.8
20260504210532 50 221 7.8 14.8 0.00 1.02 0.02 68 1004.9
20260504205530 50 255 5.2 16.5 0.00 1.03 0.02 66 1004.7
20260504205030 50 249 6.1 16.5 0.00 1.04 0.02 68 1004.6
20260504204532 50 244 5.2 20.0 0.00 1.04 0.02 67 1004.6
20260504204030 50 230 8.7 20.0 0.00 1.05 0.02 66 1004.6
20260504203529 50 264 5.2 22.6 0.00 1.05 0.02 65 1004.7
20260504203029 50 240 6.1 22.6 0.00 1.05 0.02 65 1004.5
20260504202527 50 251 7.8 21.7 0.00 1.07 0.02 66 1004.5
20260504202025 50 248 10.4 21.7 0.00 1.08 0.02 67 1004.6
20260504201525 51 229 7.8 20.0 0.00 1.08 0.02 68 1004.6
20260504201025 51 226 7.0 24.3 0.00 1.09 0.02 67 1004.7
20260504200020 52 243 4.3 23.5 0.00 1.11 0.02 64 1004.2
20260504195518 53 228 7.0 20.9 0.00 1.11 0.02 63 1004.2
20260504195018 54 264 7.0 21.7 0.00 1.11 0.02 62 1004.4
20260504194517 54 260 12.2 21.7 0.00 1.13 0.02 61 1004.0
20260504194014 54 230 10.4 21.7 0.00 1.13 0.02 61 1003.7
20260504193513 54 255 11.3 25.2 0.00 1.15 0.02 60 1003.9
20260504193014 55 237 9.6 25.2 0.00 1.16 0.02 59 1003.8
20260504192513 55 255 11.3 31.3 0.00 1.16 0.02 58 1003.8
20260504192011 56 131 8.7 31.3 0.00 1.19 0.02 57 1003.6
20260504191510 56 229 15.6 24.3 0.00 1.20 0.02 53 1003.6
20260504191010 56 221 17.4 24.3 0.00 1.21 0.02 53 1003.8
20260504190512 56 255 12.2 24.3 0.00 1.24 0.02 53 1003.5
20260504190011 56 234 13.0 21.7 0.00 1.25 0.02 52 1003.5
20260504185510 56 247 10.4 24.3 0.00 1.26 0.02 52 1003.5
20260504185011 55 256 13.9 24.3 0.00 1.26 0.02 53 1003.3
20260504184511 56 242 19.1 21.7 0.00 1.27 0.02 50 1003.5
20260504184010 56 248 8.7 24.3 0.00 1.29 0.02 52 1003.5
20260504183508 55 240 13.0 24.3 0.00 1.29 0.02 51 1003.4
20260504183006 55 232 14.8 24.3 0.00 1.31 0.02 50 1003.8
20260504182505 55 251 13.0 21.7 0.00 1.32 0.02 49 1003.8
20260504182002 56 244 10.4 25.2 0.00 1.32 0.02 49 1003.7
20260504181500 56 235 16.5 25.2 0.00 1.33 0.02 47 1003.6
20260504181001 56 231 15.6 28.7 0.00 1.34 0.02 46 1003.8
20260504180459 56 256 11.3 28.7 0.00 1.36 0.02 45 1004.1
20260504175958 56 228 6.1 26.1 0.00 1.36 0.02 44 1003.7
20260504175458 57 237 9.6 22.6 0.00 1.36 0.02 39 1003.7
20260504174955 57 256 13.0 22.6 0.00 1.37 0.02 38 1003.7
20260504174453 57 194 9.6 22.6 0.00 1.38 0.02 42 1003.4
20260504173953 57 238 13.9 23.5 0.00 1.39 0.02 39 1003.7
20260504173453 58 242 7.8 23.5 0.00 1.40 0.02 42 1003.8
20260504172952 57 222 7.0 20.9 0.00 1.42 0.02 42 1003.7
20260504172451 57 219 5.2 20.9 0.00 1.43 0.02 39 1003.7
20260504171951 58 247 13.0 18.2 0.00 1.44 0.02 39 1003.8
20260504170949 57 252 9.6 21.7 0.00 1.47 0.02 40 1003.7
20260504170448 57 216 15.6 21.7 0.00 1.49 0.02 39 1003.7
20260504160432 56 240 11.3 17.4 0.00 1.87 0.02 41 1004.3
20260504150920 53 221 17.4 21.7 0.00 2.23 0.02 37 1004.6
20260504150418 52 244 9.6 21.7 0.00 2.24 0.02 40 1004.7
20260504140916 49 268 13.0 25.2 0.00 2.36 0.02 49 1004.9
20260504140415 49 266 10.4 25.2 0.00 2.38 0.02 54 1004.9
20260504130403 46 269 11.3 17.4 0.00 2.40 0.02 64 1004.6
20260504110335 41 271 12.2 15.6 0.00 2.40 0.02 79 1002.7
20260504100321 41 227 10.4 13.9 0.00 2.41 0.02 84 1001.7
20260504081805 42 270 9.6 14.8 0.00 2.41 0.02 90 999.2
20260504081306 42 290 10.4 14.8 0.00 2.41 0.02 90 999.4
20260504080804 42 260 9.6 15.6 0.00 2.41 0.02 90 999.3
20260504080304 42 276 10.4 15.6 0.00 2.41 0.02 90 999.2
20260504070258 42 291 8.7 13.9 0.00 2.41 0.02 90 998.7
20260504050253 40 274 7.0 15.6 0.00 2.41 0.02 94 997.0
20260504045752 40 265 5.2 15.6 0.00 2.41 0.02 94 997.0
20260504045253 40 230 10.4 13.0 0.00 2.41 0.02 94 997.0
20260504044804 40 293 7.0 18.2 0.01 2.41 0.02 93 996.9
20260504044249 40 295 8.7 20.0 0.01 2.41 0.02 92 996.8
20260504043749 40 279 10.4 20.0 0.01 2.41 0.02 92 996.9
20260504043250 39 285 8.7 21.7 0.01 2.41 0.02 93 996.8
20260504042749 39 299 11.3 21.7 0.01 2.41 0.02 92 996.8
20260504042249 39 257 9.6 19.1 0.01 2.41 0.02 92 996.8
20260504041749 39 292 13.9 18.2 0.01 2.41 0.02 93 996.7
20260504040750 39 303 7.8 18.2 0.01 2.41 0.02 93 996.5
20260504040250 39 295 14.8 16.5 0.02 2.41 0.02 93 996.4
20260504035749 39 292 6.1 16.5 0.02 2.41 0.02 93 996.6
20260504035248 39 294 7.0 16.5 0.02 2.41 0.02 93 996.3
20260504034748 39 297 12.2 16.5 0.02 2.40 0.01 93 996.1
20260504034247 39 276 7.0 17.4 0.03 2.40 0.01 93 996.1
20260504033747 39 272 6.1 21.7 0.05 2.40 0.01 93 995.9
20260504033247 39 302 15.6 26.1 0.06 2.40 0.01 92 995.9
20260504032746 39 298 15.6 26.1 0.07 2.40 0.01 92 995.9
20260504032246 39 257 9.6 26.1 0.08 2.40 0.01 92 995.6
20260504031746 39 279 8.7 26.1 0.08 2.40 0.01 92 995.7
20260504030745 39 288 10.4 27.8 0.10 2.40 0.01 92 995.4
20260504030245 39 305 12.2 26.1 0.09 2.39 0.00 92 995.2
20260504025745 39 291 11.3 26.1 0.11 2.39 2.39 92 995.1
20260504025246 39 302 15.6 20.0 0.12 2.39 2.39 93 995.0
20260504024744 39 297 15.6 20.0 0.12 2.38 2.38 93 995.0
20260504024240 39 299 11.3 20.0 0.13 2.37 2.37 93 995.1
20260504023240 39 292 15.6 25.2 0.13 2.34 2.34 92 994.8
20260504022740 39 272 8.7 20.9 0.14 2.33 2.33 93 994.7
20260504021738 38 299 9.6 22.6 0.17 2.32 2.32 93 994.4
20260504021251 38 304 14.8 22.6 0.17 2.31 2.31 92 994.3
20260504020735 38 303 14.8 20.0 0.17 2.30 2.30 93 994.2
20260504020234 38 288 12.2 21.7 0.17 2.30 2.30 93 994.2
20260504015727 38 312 15.6 26.1 0.18 2.28 2.28 93 994.2
20260504015225 38 306 11.3 26.1 0.18 2.27 2.27 93 994.2
20260504013721 37 292 13.0 22.6 0.17 2.22 2.22 92 993.9
20260504013220 37 302 17.4 26.9 0.18 2.21 2.21 92 993.7
20260504012216 37 308 14.8 27.8 0.18 2.17 2.17 91 993.8
20260504011714 38 295 20.9 27.8 0.17 2.15 2.16 90 993.6
20260504011214 38 299 17.4 26.9 0.18 2.14 2.14 88 993.5
20260504010713 38 302 14.8 27.8 0.18 2.13 2.13 88 993.3
20260504010207 38 297 20.9 30.4 0.18 2.12 2.12 89 993.3
20260504005708 38 306 20.9 30.4 0.18 2.10 2.10 89 993.1
20260504004707 37 299 15.6 33.9 0.19 2.08 2.08 92 992.8
20260504004205 36 288 14.8 26.1 0.20 2.06 2.06 93 992.8
20260504003704 36 296 17.4 33.0 0.20 2.06 2.06 93 993.0
20260504003204 36 300 12.2 33.0 0.20 2.03 2.03 92 992.8
20260504002703 36 282 7.8 25.2 0.19 2.01 2.01 91 992.5
20260504002159 36 302 7.8 24.3 0.19 1.99 1.99 89 992.5
20260504001158 37 297 22.6 26.1 0.19 1.96 1.96 88 992.2
20260504000658 37 310 4.3 26.1 0.19 1.95 1.95 88 992.1
20260503235658 37 294 8.7 31.3 0.19 1.92 1.92 89 992.0
20260503235157 37 303 14.8 31.3 0.19 1.90 1.91 89 991.8
20260503234156 36 300 7.8 20.9 0.18 1.86 1.86 93 991.9
20260503233153 36 298 7.0 18.2 0.18 1.83 1.83 92 991.9
20260503232652 36 283 11.3 18.2 0.20 1.81 1.81 91 991.8
20260503232151 37 288 1.7 16.5 0.20 1.79 1.79 90 991.7